OBJECT AF, 68445

Orbit data source: Space-Track

You're viewing an Uncataloged Satellite

Recently launched and/or uncataloged satellites may have evolving metadata. Metadata may include but not limited to: Owner, Maufacturer, Bus, Motor, and Mission.

OBJECT AF, 68445 is a satellite in SSO that was launched on Mon, 30 Mar 2026 UTC via an FALCON 9 launch vehicle from the Air Force Western Test Range (AFWTR). Unknown objects in Earth's orbit typically refer to objects detected orbiting the Earth but have not yet been identified or cataloged. These objects could be anything from previously untracked satellites, spent rocket stages, debris from satellite collisions, or even natural meteoroids temporarily captured by Earth's gravity.

Loading next visibility...
Identifier
68445, 2026-067AF
Orbit
SSO
Country
Flag of TBDTBD
Related business
None
Manufacturer
Unknown
Mission
Operational spacecraft
Bus & Motor
Unknown
Mass
Unknown
Launch date (UTC)
2026-03-30 (1 month ago)
Launch vehicle
FALCON 9
Launch site
Air Force Western Test Range (AFWTR)
Object type
Unknown
Shape & HBR
Unknown shape, 1.1 m
Radar Cross Section
RCS unknown

Expand to show TLE details & history
Last TLE update: 8 hours ago

TLE from 8 hours ago
0 OBJECT AF
1 68445U 26067AF  26127.16739982  .00003992  00000-0  20500-3 0  9994
2 68445  97.4500  86.1704 0004112 199.7738 160.3337 15.17064393  5717
Epoch: 2026-05-07T04:01Z
TLE epoch observation values (Epoch: 2026-05-07T04:01:03.344Z)
Latitude
0.00002°
Longitude
160.88904°
Altitude
520.473 km
Speed
7.602 km/s
True Right ascension
05h 44m 40s
True Declination
0° 00' 00"
Sunlit
Object was in daylight at epoch
Visualization orbit readout
Latitude
Unknown
Longitude
Unknown
Altitude
Unknown
Speed
Unknown
Apparent Right ascension
Unknown
Apparent Declination
Unknown
Sunlit
N/A
Visualization observer readout
Local Sidereal Time
20:04:03
Azimuth
Unknown
Elevation
Unknown
Doppler factor
Unknown
Orbital elements
Apogee altitude
514.523 km
Perigee altitude
508.857 km
Semi-major axis
6,889.827 km
Eccentricity
0.00041
Inclination
97.45°
RAAN
86.1704°
Arg. of periapsis
199.7738°
True anomaly
160.34955°
Mean anomaly
160.3337°
Eccentric anomaly
160.34163°
Mean motion
3.79517 °/min
Orbital period
94.86 mins
BSTAR
0.000205
Loading maneuver chart data...
Computing Atmospheric mass density...
Loading historical data...
Loading historical data...
Loading historical data...
Loading historical data...
Loading historical data...
Loading historical data...
Loading historical data...

Documentation

Showing up to 5 results
|